Location: ???? ????
(31.2831°N, 45.5190°E)
Time: 08:17:56
(UTC+00:00)

Cosmos 2219 - Pass Details

Date: 24 February 2021
Orbit: 835 x 858 km, 71.1° (Epoch: 15 April)

Event Time Altitude Azimuth Distance (km) Brightness Sun altitude
Rises 15:25:02 0° 335° (NNW) 3,385 6.6 -7.7°
Reaches altitude 10° 15:27:30 10° 332° (NNW) 2,448 5.9 -8.3°
Maximum altitude 15:33:00 61° 254° (WSW) 947 3.8 -9.4°
Drops below altitude 10° 15:38:30 10° 175° (S) 2,442 5.6 -10.6°
Sets 15:40:58 0° 171° (S) 3,375 6.3 -11.1°
